sat.trackr.live / text

‹ back to catalog

STARLINK-4314

NORAD 53056 · 2022-077P

PAYLOAD ACTIVE UNKNOWN

§ Identity

Operator
Country
US
Launch date
2022-07-11
Launch site
AFWTR
Launch vehicle
Mass (kg)
RCS (m²)

Purposes: comms

External: N2YO · Heavens-Above · Gunter

§ Orbital elements

Epoch: 2026-05-25T01:57:06.424704Z

Period
95.64 min
Inclination
97.4454°
Eccentricity
0.0001108
Mean motion
15.05654721 rev/d
Perigee alt
548.7 km
Apogee alt
550.3 km
Semi-major
6,927.6 km
B*
-1.1695e-4
RAAN
326.1348°
Arg perigee
120.8188°
Mean anomaly
239.3148°
Rev number
21,247

§ Raw data

STARLINK-43141 53056U 22077P   26145.08132436 -.00001746  00000+0 -11695-3 0  99962 53056  97.4454 326.1348 0001108 120.8188 239.3148 15.05654721212471

JSON: /api/v1/satellites/53056 · /tle

For live sub-satellite position, see the globe view (requires WebGL).

§ Visibility from observer

Set your observer location to see the next 7 days of passes ≥ 10°. The values pass through the URL so the page stays shareable.

No JS? Fill the form by hand. The geolocation button needs JavaScript.